Regional Weather Roundup
Issued by NWS Tiyan, Guam

Home | Current Version | Previous Version | Text Only | Print | Product List | Glossary On
Versions: 1 2 3 4 5 6 7 8 9 10 11 12 13 14 15 16 17 18 19 20 21 22 23 24 25 26 27 28 29 30 31 32 33 34 35 36 37 38 39 40 41 42 43 44 45 46 47 48 49 50
838
ASGM40 PGUM 200312
RWRGUM
WEATHER ROUNDUP FOR THE MARIANAS
NATIONAL WEATHER SERVICE TIYAN GU
100 PM CHST TUE FEB 20 2018

GUZ001>004-200400-
MARIANA ISLANDS-

CITY           SKY/WX    TMP DP  RH WIND       PRES   REMARKS
GUAM AIRPORT   PTSUNNY   84  73  70 E15       29.87F HX  91
ANDERSEN AFB   PTSUNNY   84  73  70 NE14      29.88F HX  91
ROTA AIRPORT   MOSUNNY   82  73  74 E17       29.88F
TINIAN AP      PTSUNNY   82  77  83 E18       29.86F HX  91
SAIPAN AP      PTSUNNY   81  75  83 E20G25    29.88F

$$





USA.gov is the U.S. government's official web portal to all federal, state and local government web resources and services.